Cincinnati, OH (45201)

7:10 AM EST on December 03, 2016 (GMT -0500)
Norwood | | Change Station

Elev 620 ft 39.15 °N, 84.45 °W | Updated 2 seconds ago

Overcast
Overcast
37.7 °F
Feels Like 38 °F
N
1.0
Wind Variable Wind from SW

Today
High -- | Low -- °F
--% Chance of Precip.
Yesterday
High -- | Low -- °F
Precip. -- in
Pressure 30.38 in
Visibility 10.0 miles
Clouds Overcast 3600 ft
Windchill 38 °F
Dew Point 33 °F
Humidity 83%
Rainfall 0.00 in
Snow Depth Not available.
7:40 AM 5:15 PM
Waxing Crescent, 14% visible
METAR KLUK 031153Z 23003KT 10SM OVC036 03/01 A3036 RMK AO2 SLP285 T00330011 10039 20028 52003
Pressure 30.38 in
Visibility 10.0 miles
Clouds Overcast 3600 ft
Windchill 38 °F
Dew Point 33 °F
Humidity 83%
Rainfall 0.00 in
Snow Depth Not available.
7:40 AM 5:15 PM
Waxing Crescent, 14% visible
METAR KLUK 031153Z 23003KT 10SM OVC036 03/01 A3036 RMK AO2 SLP285 T00330011 10039 20028 52003

10-Day Weather Forecast

Almanac

Astronomy

Dec. 03, 2016 Rise Set
Actual Time
Civil Twilight
Nautical Twilight
Astronomical Twilight
Moon
Length of Visible Light
Length of Day
Tomorrow will be .
, % of the Moon is Illuminated

Today's Extremes

State Highs State Lows

Community

WunderPhotos

Upload Photos

1,955,441 photos uploaded!

WunderBlog® & News

Nearby

Air Quality

  Air Quality AQ Index Pollutant
Not available.

Snow Depth

Station Depth Elevation

Earthquake Activity

City Distance Mag. Time & Date
Minimum magnitude displayed is 2.5.

Coastal Water Temperatures

Place Temperature

Stations

Nearby Weather Stations

Station Location Temp. Windchill Dew Point Humidity Wind Precip. Elev Updated Type
                   

Watches & Warnings

There are currently no watches in effect.